Regional Weather Roundup
Issued by NWS

Home | Current Version | Previous Version | Text Only | Print | Product List | Glossary Off
Versions: 1 2 3 4 5 6 7 8 9 10 11 12 13 14 15 16 17 18 19 20 21 22 23 24 25 26 27 28 29 30 31 32 33 34 35 36 37 38 39 40 41 42 43 44 45 46 47 48 49 50

000
ASUS43 KBIS 210010
RWRND

NORTH DAKOTA REGIONAL WEATHER ROUNDUP
NATIONAL WEATHER SERVICE BISMARCK ND
600 PM CST SAT DEC 20 2014

NOTE: "FAIR" INDICATES FEW OR NO CLOUDS BELOW 12,000 FEET WITH NO
SIGNIFICANT WEATHER AND/OR OBSTRUCTIONS TO VISIBILITY.


NDZ001>003-009>011-017-210100-
NORTHWEST NORTH DAKOTA

CITY           SKY/WX    TMP DP  RH WIND       PRES   REMARKS
WILLISTON      PTCLDY    34  28  79 W7        29.76F
6HR MIN TEMP:  29; 6HR MAX TEMP:  42; 6HR PCP: TRACE;

MINOT          CLEAR     25  22  88 S7        29.77F WCI  17
MINOT AFB      PTCLDY    21  21  99 S3        29.76F
$$

NDZ018>021-031>035-040>046-210100-
SOUTHWEST NORTH DAKOTA

CITY           SKY/WX    TMP DP  RH WIND       PRES   REMARKS
BISMARCK       CLEAR     23  21  92 SE6       29.83S WCI  16
6HR MIN TEMP:  20; 6HR MAX TEMP:  34;

DICKINSON      CLEAR     34  24  67 W7        29.78F
GARRISON         N/A     28  26  92 CALM      29.78F
6HR MIN TEMP:  24; 6HR MAX TEMP:  35;

HETTINGER ARPT PTCLDY    33  24  69 W5        29.83F
$$

NDZ004>008-012>016-024-026-027-054-210100-
NORTHEAST NORTH DAKOTA

CITY           SKY/WX    TMP DP  RH WIND       PRES   REMARKS
GRAND FORKS    CLOUDY    28  27  93 S13       29.92F WCI  18
GRND FRKS AFB  CLOUDY    28  28 100 S16       29.91F WCI  16
DEVILS LAKE    CLOUDY    27  19  74 SE10      29.81F WCI  17
$$

NDZ022-023-025-028>030-036>039-047>053-210100-
SOUTHEAST NORTH DAKOTA

CITY           SKY/WX    TMP DP  RH WIND       PRES   REMARKS
FARGO          CLOUDY    32  28  85 S15G22    29.95F FOG
6HR MIN TEMP:  31; 6HR MAX TEMP:  32;

JAMESTOWN      CLOUDY    30  26  85 S10       29.85S
$$



USA.gov is the U.S. government's official web portal to all federal, state and local government web resources and services.